Year,Month,Day,Hour,Minute,Value (Times are PST for temperature in C)
2016,08,16,00,00,14.90
2016,08,16,00,01,14.90
2016,08,16,00,02,14.90
2016,08,16,00,03,14.80
2016,08,16,00,04,14.80
2016,08,16,00,05,14.80
2016,08,16,00,06,14.80
2016,08,16,00,07,14.80
2016,08,16,00,08,14.70
2016,08,16,00,09,14.70
2016,08,16,00,10,14.70
2016,08,16,00,11,14.70
2016,08,16,00,12,14.70
2016,08,16,00,13,14.70
2016,08,16,00,14,14.70
2016,08,16,00,15,14.60
2016,08,16,00,16,14.60
2016,08,16,00,17,14.60
2016,08,16,00,18,14.60
2016,08,16,00,19,14.60
2016,08,16,00,20,14.60
2016,08,16,00,21,14.60
2016,08,16,00,22,14.60
2016,08,16,00,23,14.60
2016,08,16,00,24,14.50
2016,08,16,00,25,14.50
2016,08,16,00,26,14.50
2016,08,16,00,27,14.50
2016,08,16,00,28,14.50
2016,08,16,00,29,14.50
2016,08,16,00,30,14.50
2016,08,16,00,31,14.40
2016,08,16,00,32,14.40
2016,08,16,00,33,14.40
2016,08,16,00,34,14.40
2016,08,16,00,35,14.40
2016,08,16,00,36,14.40
2016,08,16,00,37,14.40
2016,08,16,00,38,14.40
2016,08,16,00,39,14.40
2016,08,16,00,40,14.40
2016,08,16,00,41,14.40
2016,08,16,00,42,14.30
2016,08,16,00,43,14.30
2016,08,16,00,44,14.30
2016,08,16,00,45,14.30
2016,08,16,00,46,14.30
2016,08,16,00,47,14.30
2016,08,16,00,48,14.30
2016,08,16,00,49,14.30
2016,08,16,00,50,14.30
2016,08,16,00,51,14.30
2016,08,16,00,52,14.30
2016,08,16,00,53,14.30
2016,08,16,00,54,14.30
2016,08,16,00,55,14.30
2016,08,16,00,56,14.30
2016,08,16,00,57,14.30
2016,08,16,00,58,14.30
2016,08,16,00,59,14.30
2016,08,16,01,00,14.30
2016,08,16,01,01,14.30
2016,08,16,01,02,14.30
2016,08,16,01,03,14.30
2016,08,16,01,04,14.30
2016,08,16,01,05,14.30
2016,08,16,01,06,14.30
2016,08,16,01,07,14.30
2016,08,16,01,08,14.30
2016,08,16,01,09,14.30
2016,08,16,01,10,14.30
2016,08,16,01,11,14.30
2016,08,16,01,12,14.30
2016,08,16,01,13,14.30
2016,08,16,01,14,14.30
2016,08,16,01,15,14.30
2016,08,16,01,16,14.30
2016,08,16,01,17,14.30
2016,08,16,01,18,14.30
2016,08,16,01,19,14.30
2016,08,16,01,20,14.30
2016,08,16,01,21,14.30
2016,08,16,01,22,14.30
2016,08,16,01,23,14.20
2016,08,16,01,24,14.20
2016,08,16,01,25,14.20
2016,08,16,01,26,14.20
2016,08,16,01,27,14.20
2016,08,16,01,28,14.20
2016,08,16,01,29,14.20
2016,08,16,01,30,14.20
2016,08,16,01,31,14.20
2016,08,16,01,32,14.20
2016,08,16,01,33,14.20
2016,08,16,01,34,14.20
2016,08,16,01,35,14.20
2016,08,16,01,36,14.20
2016,08,16,01,37,14.20
2016,08,16,01,38,14.20
2016,08,16,01,39,14.20
2016,08,16,01,40,14.20
2016,08,16,01,41,14.20
2016,08,16,01,42,14.20
2016,08,16,01,43,14.20
2016,08,16,01,44,14.20
2016,08,16,01,45,14.20
2016,08,16,01,46,14.10
2016,08,16,01,47,14.10
2016,08,16,01,48,14.10
2016,08,16,01,49,14.10
2016,08,16,01,50,14.10
2016,08,16,01,51,14.10
2016,08,16,01,52,14.10
2016,08,16,01,53,14.10
2016,08,16,01,54,14.00
2016,08,16,01,55,14.00
2016,08,16,01,56,14.00
2016,08,16,01,57,14.00
2016,08,16,01,58,13.90
2016,08,16,01,59,13.90
2016,08,16,02,00,13.90
2016,08,16,02,01,13.90
2016,08,16,02,02,13.90
2016,08,16,02,03,13.90
2016,08,16,02,04,13.80
2016,08,16,02,05,13.80
2016,08,16,02,06,13.80
2016,08,16,02,07,13.80
2016,08,16,02,08,13.80
2016,08,16,02,09,13.70
2016,08,16,02,10,13.70
2016,08,16,02,11,13.70
2016,08,16,02,12,13.70
2016,08,16,02,13,13.70
2016,08,16,02,14,13.70
2016,08,16,02,15,13.70
2016,08,16,02,16,13.70
2016,08,16,02,17,13.60
2016,08,16,02,18,13.60
2016,08,16,02,19,13.60
2016,08,16,02,20,13.60
2016,08,16,02,21,13.60
2016,08,16,02,22,13.60
2016,08,16,02,23,13.60
2016,08,16,02,24,13.50
2016,08,16,02,25,13.50
2016,08,16,02,26,13.50
2016,08,16,02,27,13.50
2016,08,16,02,28,13.50
2016,08,16,02,29,13.40
2016,08,16,02,30,13.40
2016,08,16,02,31,13.40
2016,08,16,02,32,13.40
2016,08,16,02,33,13.40
2016,08,16,02,34,13.40
2016,08,16,02,35,13.40
2016,08,16,02,36,13.30
2016,08,16,02,37,13.30
2016,08,16,02,38,13.30
2016,08,16,02,39,13.30
2016,08,16,02,40,13.30
2016,08,16,02,41,13.30
2016,08,16,02,42,13.30
2016,08,16,02,43,13.30
2016,08,16,02,44,13.20
2016,08,16,02,45,13.20
2016,08,16,02,46,13.20
2016,08,16,02,47,13.20
2016,08,16,02,48,13.20
2016,08,16,02,49,13.20
2016,08,16,02,50,13.20
2016,08,16,02,51,13.20
2016,08,16,02,52,13.10
2016,08,16,02,53,13.10
2016,08,16,02,54,13.10
2016,08,16,02,55,13.10
2016,08,16,02,56,13.10
2016,08,16,02,57,13.00
2016,08,16,02,58,13.00
2016,08,16,02,59,13.00
2016,08,16,03,00,13.00
2016,08,16,03,01,13.00
2016,08,16,03,02,13.00
2016,08,16,03,03,13.00
2016,08,16,03,04,13.00
2016,08,16,03,05,13.00
2016,08,16,03,06,13.00
2016,08,16,03,07,13.00
2016,08,16,03,08,13.00
2016,08,16,03,09,13.00
2016,08,16,03,10,13.00
2016,08,16,03,11,13.00
2016,08,16,03,12,13.00
2016,08,16,03,13,13.00
2016,08,16,03,14,13.00
2016,08,16,03,15,13.00
2016,08,16,03,16,13.00
2016,08,16,03,17,12.90
2016,08,16,03,18,12.90
2016,08,16,03,19,12.90
2016,08,16,03,20,12.90
2016,08,16,03,21,12.90
2016,08,16,03,22,12.90
2016,08,16,03,23,12.90
2016,08,16,03,24,12.90
2016,08,16,03,25,12.90
2016,08,16,03,26,12.90
2016,08,16,03,27,12.90
2016,08,16,03,28,12.80
2016,08,16,03,29,12.80
2016,08,16,03,30,12.80
2016,08,16,03,31,12.80
2016,08,16,03,32,12.80
2016,08,16,03,33,12.80
2016,08,16,03,34,12.80
2016,08,16,03,35,12.80
2016,08,16,03,36,12.80
2016,08,16,03,37,12.80
2016,08,16,03,38,12.80
2016,08,16,03,39,12.80
2016,08,16,03,40,12.80
2016,08,16,03,41,12.80
2016,08,16,03,42,12.80
2016,08,16,03,43,12.70
2016,08,16,03,44,12.70
2016,08,16,03,45,12.70
2016,08,16,03,46,12.70
2016,08,16,03,47,12.70
2016,08,16,03,48,12.70
2016,08,16,03,49,12.70
2016,08,16,03,50,12.60
2016,08,16,03,51,12.60
2016,08,16,03,52,12.60
2016,08,16,03,53,12.60
2016,08,16,03,54,12.60
2016,08,16,03,55,12.60
2016,08,16,03,56,12.60
2016,08,16,03,57,12.60
2016,08,16,03,58,12.60
2016,08,16,03,59,12.60
2016,08,16,04,00,12.60
2016,08,16,04,01,12.60
2016,08,16,04,02,12.60
2016,08,16,04,03,12.60
2016,08,16,04,04,12.60
2016,08,16,04,05,12.60
2016,08,16,04,06,12.60
2016,08,16,04,07,12.60
2016,08,16,04,08,12.60
2016,08,16,04,09,12.60
2016,08,16,04,10,12.60
2016,08,16,04,11,12.60
2016,08,16,04,12,12.60
2016,08,16,04,13,12.60
2016,08,16,04,14,12.60
2016,08,16,04,15,12.60
2016,08,16,04,16,12.60
2016,08,16,04,17,12.50
2016,08,16,04,18,12.50
2016,08,16,04,19,12.50
2016,08,16,04,20,12.50
2016,08,16,04,21,12.50
2016,08,16,04,22,12.50
2016,08,16,04,23,12.50
2016,08,16,04,24,12.50
2016,08,16,04,25,12.50
2016,08,16,04,26,12.50
2016,08,16,04,27,12.50
2016,08,16,04,28,12.50
2016,08,16,04,29,12.50
2016,08,16,04,30,12.50
2016,08,16,04,31,12.50
2016,08,16,04,32,12.40
2016,08,16,04,33,12.40
2016,08,16,04,34,12.40
2016,08,16,04,35,12.40
2016,08,16,04,36,12.40
2016,08,16,04,37,12.40
2016,08,16,04,38,12.40
2016,08,16,04,39,12.40
2016,08,16,04,40,12.40
2016,08,16,04,41,12.40
2016,08,16,04,42,12.40
2016,08,16,04,43,12.40
2016,08,16,04,44,12.40
2016,08,16,04,45,12.40
2016,08,16,04,46,12.40
2016,08,16,04,47,12.40
2016,08,16,04,48,12.40
2016,08,16,04,49,12.40
2016,08,16,04,50,12.40
2016,08,16,04,51,12.40
2016,08,16,04,52,12.40
2016,08,16,04,53,12.30
2016,08,16,04,54,12.30
2016,08,16,04,55,12.30
2016,08,16,04,56,12.30
2016,08,16,04,57,12.30
2016,08,16,04,58,12.30
2016,08,16,04,59,12.30
2016,08,16,05,00,12.30
2016,08,16,05,01,12.30
2016,08,16,05,02,12.30
2016,08,16,05,03,12.30
2016,08,16,05,04,12.30
2016,08,16,05,05,12.30
2016,08,16,05,06,12.30
2016,08,16,05,07,12.30
2016,08,16,05,08,12.30
2016,08,16,05,09,12.30
2016,08,16,05,10,12.30
2016,08,16,05,11,12.30
2016,08,16,05,12,12.30
2016,08,16,05,13,12.30
2016,08,16,05,14,12.30
2016,08,16,05,15,12.30
2016,08,16,05,16,12.30
2016,08,16,05,17,12.20
2016,08,16,05,18,12.20
2016,08,16,05,19,12.20
2016,08,16,05,20,12.20
2016,08,16,05,21,12.20
2016,08,16,05,22,12.20
2016,08,16,05,23,12.20
2016,08,16,05,24,12.20
2016,08,16,05,25,12.20
2016,08,16,05,26,12.20
2016,08,16,05,27,12.20
2016,08,16,05,28,12.20
2016,08,16,05,29,12.20
2016,08,16,05,30,12.20
2016,08,16,05,31,12.20
2016,08,16,05,32,12.20
2016,08,16,05,33,12.20
2016,08,16,05,34,12.20
2016,08,16,05,35,12.20
2016,08,16,05,36,12.20
2016,08,16,05,37,12.20
2016,08,16,05,38,12.10
2016,08,16,05,39,12.10
2016,08,16,05,40,12.10
2016,08,16,05,41,12.10
2016,08,16,05,42,12.10
2016,08,16,05,43,12.10
2016,08,16,05,44,12.10
2016,08,16,05,45,12.10
2016,08,16,05,46,12.10
2016,08,16,05,47,12.10
2016,08,16,05,48,12.10
2016,08,16,05,49,12.10
2016,08,16,05,50,12.00
2016,08,16,05,51,12.00
2016,08,16,05,52,12.00
2016,08,16,05,53,12.00
2016,08,16,05,54,12.00
2016,08,16,05,55,12.00
2016,08,16,05,56,12.00
2016,08,16,05,57,12.00
2016,08,16,05,58,12.00
2016,08,16,05,59,12.00
2016,08,16,06,00,12.00
2016,08,16,06,01,12.00
2016,08,16,06,02,12.00
2016,08,16,06,03,11.90
2016,08,16,06,04,11.90
2016,08,16,06,05,11.90
2016,08,16,06,06,11.90
2016,08,16,06,07,12.00
2016,08,16,06,08,12.00
2016,08,16,06,09,12.00
2016,08,16,06,10,12.00
2016,08,16,06,11,12.00
2016,08,16,06,12,12.00
2016,08,16,06,13,12.10
2016,08,16,06,14,12.10
2016,08,16,06,15,12.10
2016,08,16,06,16,12.10
2016,08,16,06,17,12.10
2016,08,16,06,18,12.10
2016,08,16,06,19,12.10
2016,08,16,06,20,12.10
2016,08,16,06,21,12.10
2016,08,16,06,22,12.00
2016,08,16,06,23,12.00
2016,08,16,06,24,12.00
2016,08,16,06,25,12.00
2016,08,16,06,26,12.00
2016,08,16,06,27,12.00
2016,08,16,06,28,12.00
2016,08,16,06,29,12.00
2016,08,16,06,30,12.00
2016,08,16,06,31,12.00
2016,08,16,06,32,12.00
2016,08,16,06,33,12.10
2016,08,16,06,34,12.10
2016,08,16,06,35,12.10
2016,08,16,06,36,12.10
2016,08,16,06,37,12.10
2016,08,16,06,38,12.10
2016,08,16,06,39,12.10
2016,08,16,06,40,12.10
2016,08,16,06,41,12.10
2016,08,16,06,42,12.10
2016,08,16,06,43,12.10
2016,08,16,06,44,12.10
2016,08,16,06,45,12.10
2016,08,16,06,46,12.10
2016,08,16,06,47,12.10
2016,08,16,06,48,12.20
2016,08,16,06,49,12.20
2016,08,16,06,50,12.30
2016,08,16,06,51,12.30
2016,08,16,06,52,12.30
2016,08,16,06,53,12.30
2016,08,16,06,54,12.30
2016,08,16,06,55,12.40
2016,08,16,06,56,12.40
2016,08,16,06,57,12.40
2016,08,16,06,58,12.40
2016,08,16,06,59,12.40
2016,08,16,07,00,12.40
2016,08,16,07,01,12.40
2016,08,16,07,02,12.40
2016,08,16,07,03,12.50
2016,08,16,07,04,12.50
2016,08,16,07,05,12.50
2016,08,16,07,06,12.50
2016,08,16,07,07,12.50
2016,08,16,07,08,12.50
2016,08,16,07,09,12.50
2016,08,16,07,10,12.50
2016,08,16,07,11,12.50
2016,08,16,07,12,12.50
2016,08,16,07,13,12.60
2016,08,16,07,14,12.60
2016,08,16,07,15,12.60
2016,08,16,07,16,12.60
2016,08,16,07,17,12.60
2016,08,16,07,18,12.60
2016,08,16,07,19,12.60
2016,08,16,07,20,12.70
2016,08,16,07,21,12.70
2016,08,16,07,22,12.70
2016,08,16,07,23,12.80
2016,08,16,07,24,12.80
2016,08,16,07,25,12.80
2016,08,16,07,26,12.80
2016,08,16,07,27,12.80
2016,08,16,07,28,12.90
2016,08,16,07,29,12.90
2016,08,16,07,30,12.90
2016,08,16,07,31,12.90
2016,08,16,07,32,12.90
2016,08,16,07,33,12.90
2016,08,16,07,34,13.00
2016,08,16,07,35,13.00
2016,08,16,07,36,13.10
2016,08,16,07,37,13.10
2016,08,16,07,38,13.10
2016,08,16,07,39,13.10
2016,08,16,07,40,13.20
2016,08,16,07,41,13.20
2016,08,16,07,42,13.20
2016,08,16,07,43,13.20
2016,08,16,07,44,13.30
2016,08,16,07,45,13.30
2016,08,16,07,46,13.40
2016,08,16,07,47,13.40
2016,08,16,07,48,13.40
2016,08,16,07,49,13.50
2016,08,16,07,50,13.50
2016,08,16,07,51,13.50
2016,08,16,07,52,13.60
2016,08,16,07,53,13.60
2016,08,16,07,54,13.60
2016,08,16,07,55,13.60
2016,08,16,07,56,13.70
2016,08,16,07,57,13.70
2016,08,16,07,58,13.70
2016,08,16,07,59,13.80
2016,08,16,08,00,13.80
2016,08,16,08,01,13.80
2016,08,16,08,02,13.80
2016,08,16,08,03,13.90
2016,08,16,08,04,13.90
2016,08,16,08,05,13.90
2016,08,16,08,06,14.00
2016,08,16,08,07,14.00
2016,08,16,08,08,14.10
2016,08,16,08,09,14.10
2016,08,16,08,10,14.20
2016,08,16,08,11,14.20
2016,08,16,08,12,14.30
2016,08,16,08,13,14.30
2016,08,16,08,14,14.40
2016,08,16,08,15,14.40
2016,08,16,08,16,14.50
2016,08,16,08,17,14.50
2016,08,16,08,18,14.60
2016,08,16,08,19,14.60
2016,08,16,08,20,14.70
2016,08,16,08,21,14.70
2016,08,16,08,22,14.80
2016,08,16,08,23,14.80
2016,08,16,08,24,14.90
2016,08,16,08,25,14.90
2016,08,16,08,26,15.00
2016,08,16,08,27,15.00
2016,08,16,08,28,15.10
2016,08,16,08,29,15.10
2016,08,16,08,30,15.20
2016,08,16,08,31,15.20
2016,08,16,08,32,15.30
2016,08,16,08,33,15.30
2016,08,16,08,34,15.40
2016,08,16,08,35,15.50
2016,08,16,08,36,15.50
2016,08,16,08,37,15.60
2016,08,16,08,38,15.70
2016,08,16,08,39,15.80
2016,08,16,08,40,15.90
2016,08,16,08,41,16.00
2016,08,16,08,42,16.10
2016,08,16,08,43,16.20
2016,08,16,08,44,16.30
2016,08,16,08,45,16.40
2016,08,16,08,46,16.50
2016,08,16,08,47,16.50
2016,08,16,08,48,16.60
2016,08,16,08,49,16.60
2016,08,16,08,50,16.70
2016,08,16,08,51,16.70
2016,08,16,08,52,16.80
2016,08,16,08,53,16.80
2016,08,16,08,54,16.80
2016,08,16,08,55,16.90
2016,08,16,08,56,16.90
2016,08,16,08,57,17.00
2016,08,16,08,58,17.00
2016,08,16,08,59,17.00
2016,08,16,09,00,17.10
2016,08,16,09,01,17.10
2016,08,16,09,02,17.20
2016,08,16,09,03,17.30
2016,08,16,09,04,17.30
2016,08,16,09,05,17.40
2016,08,16,09,06,17.50
2016,08,16,09,07,17.60
2016,08,16,09,08,17.70
2016,08,16,09,09,17.80
2016,08,16,09,10,17.80
2016,08,16,09,11,18.00
2016,08,16,09,12,18.00
2016,08,16,09,13,18.20
2016,08,16,09,14,18.30
2016,08,16,09,15,18.40
2016,08,16,09,16,18.50
2016,08,16,09,17,18.60
2016,08,16,09,18,18.70
2016,08,16,09,19,18.80
2016,08,16,09,20,18.90
2016,08,16,09,21,19.00
2016,08,16,09,22,19.20
2016,08,16,09,23,19.30
2016,08,16,09,24,19.40
2016,08,16,09,25,19.50
2016,08,16,09,26,19.60
2016,08,16,09,27,19.60
2016,08,16,09,28,19.70
2016,08,16,09,29,19.70
2016,08,16,09,30,19.80
2016,08,16,09,31,19.80
2016,08,16,09,32,19.80
2016,08,16,09,33,19.80
2016,08,16,09,34,19.90
2016,08,16,09,35,19.90
2016,08,16,09,36,20.00
2016,08,16,09,37,20.00
2016,08,16,09,38,20.10
2016,08,16,09,39,20.20
2016,08,16,09,40,20.20
2016,08,16,09,41,20.20
2016,08,16,09,42,20.20
2016,08,16,09,43,20.30
2016,08,16,09,44,20.30
2016,08,16,09,45,20.30
2016,08,16,09,46,20.30
2016,08,16,09,47,20.30
2016,08,16,09,48,20.30
2016,08,16,09,49,20.40
2016,08,16,09,50,20.50
2016,08,16,09,51,20.60
2016,08,16,09,52,20.60
2016,08,16,09,53,20.60
2016,08,16,09,54,20.70
2016,08,16,09,55,20.70
2016,08,16,09,56,20.70
2016,08,16,09,57,20.70
2016,08,16,09,58,20.70
2016,08,16,09,59,20.70
2016,08,16,10,00,20.80
2016,08,16,10,01,20.80
2016,08,16,10,02,20.80
2016,08,16,10,03,20.90
2016,08,16,10,04,20.90
2016,08,16,10,05,21.00
2016,08,16,10,06,21.00
2016,08,16,10,07,21.10
2016,08,16,10,08,21.10
2016,08,16,10,09,21.10
2016,08,16,10,10,21.20
2016,08,16,10,11,21.20
2016,08,16,10,12,21.30
2016,08,16,10,13,21.30
2016,08,16,10,14,21.40
2016,08,16,10,15,21.40
2016,08,16,10,16,21.50
2016,08,16,10,17,21.50
2016,08,16,10,18,21.60
2016,08,16,10,19,21.60
2016,08,16,10,20,21.70
2016,08,16,10,21,21.70
2016,08,16,10,22,21.70
2016,08,16,10,23,21.70
2016,08,16,10,24,21.70
2016,08,16,10,25,21.70
2016,08,16,10,26,21.60
2016,08,16,10,27,21.70
2016,08,16,10,28,21.60
2016,08,16,10,29,21.60
2016,08,16,10,30,21.70
2016,08,16,10,31,21.70
2016,08,16,10,32,21.70
2016,08,16,10,33,21.70
2016,08,16,10,34,21.70
2016,08,16,10,35,21.70
2016,08,16,10,36,21.80
2016,08,16,10,37,21.80
2016,08,16,10,38,21.90
2016,08,16,10,39,21.90
2016,08,16,10,40,22.00
2016,08,16,10,41,22.10
2016,08,16,10,42,22.20
2016,08,16,10,43,22.20
2016,08,16,10,44,22.20
2016,08,16,10,45,22.20
2016,08,16,10,46,22.20
2016,08,16,10,47,22.20
2016,08,16,10,48,22.20
2016,08,16,10,49,22.20
2016,08,16,10,50,22.20
2016,08,16,10,51,22.20
2016,08,16,10,52,22.20
2016,08,16,10,53,22.20
2016,08,16,10,54,22.20
2016,08,16,10,55,22.30
2016,08,16,10,56,22.30
2016,08,16,10,57,22.30
2016,08,16,10,58,22.40
2016,08,16,10,59,22.40
2016,08,16,11,00,22.40
2016,08,16,11,01,22.40
2016,08,16,11,02,22.40
2016,08,16,11,03,22.40
2016,08,16,11,04,22.50
2016,08,16,11,05,22.50
2016,08,16,11,06,22.60
2016,08,16,11,07,22.60
2016,08,16,11,08,22.60
2016,08,16,11,09,22.70
2016,08,16,11,10,22.70
2016,08,16,11,11,22.80
2016,08,16,11,12,22.70
2016,08,16,11,13,22.70
2016,08,16,11,14,22.70
2016,08,16,11,15,22.80
2016,08,16,11,16,22.80
2016,08,16,11,17,22.80
2016,08,16,11,18,22.90
2016,08,16,11,19,23.00
2016,08,16,11,20,23.10
2016,08,16,11,21,23.10
2016,08,16,11,22,23.20
2016,08,16,11,23,23.20
2016,08,16,11,24,23.30
2016,08,16,11,25,23.30
2016,08,16,11,26,23.40
2016,08,16,11,27,23.40
2016,08,16,11,28,23.40
2016,08,16,11,29,23.50
2016,08,16,11,30,23.50
2016,08,16,11,31,23.40
2016,08,16,11,32,23.40
2016,08,16,11,33,23.40
2016,08,16,11,34,23.40
2016,08,16,11,35,23.40
2016,08,16,11,36,23.30
2016,08,16,11,37,23.30
2016,08,16,11,38,23.20
2016,08,16,11,39,23.20
2016,08,16,11,40,23.10
2016,08,16,11,41,23.10
2016,08,16,11,42,23.10
2016,08,16,11,43,23.10
2016,08,16,11,44,23.20
2016,08,16,11,45,23.10
2016,08,16,11,46,23.20
2016,08,16,11,47,23.20
2016,08,16,11,48,23.20
2016,08,16,11,49,23.20
2016,08,16,11,50,23.30
2016,08,16,11,51,23.40
2016,08,16,11,52,23.40
2016,08,16,11,53,23.50
2016,08,16,11,54,23.50
2016,08,16,11,55,23.60
2016,08,16,11,56,23.70
2016,08,16,11,57,23.70
2016,08,16,11,58,23.60
2016,08,16,11,59,23.60
2016,08,16,12,00,23.60
2016,08,16,12,01,23.60
2016,08,16,12,02,23.60
2016,08,16,12,03,23.70
2016,08,16,12,04,23.70
2016,08,16,12,05,23.80
2016,08,16,12,06,23.80
2016,08,16,12,07,23.80
2016,08,16,12,08,23.80
2016,08,16,12,09,23.90
2016,08,16,12,10,23.90
2016,08,16,12,11,23.90
2016,08,16,12,12,23.90
2016,08,16,12,13,23.80
2016,08,16,12,14,23.80
2016,08,16,12,15,23.80
2016,08,16,12,16,23.80
2016,08,16,12,17,23.80
2016,08,16,12,18,23.80
2016,08,16,12,19,23.80
2016,08,16,12,20,23.80
2016,08,16,12,21,23.80
2016,08,16,12,22,23.80
2016,08,16,12,23,23.80
2016,08,16,12,24,23.90
2016,08,16,12,25,23.90
2016,08,16,12,26,24.00
2016,08,16,12,27,24.00
2016,08,16,12,28,24.10
2016,08,16,12,29,24.00
2016,08,16,12,30,24.00
2016,08,16,12,31,24.10
2016,08,16,12,32,24.10
2016,08,16,12,33,24.10
2016,08,16,12,34,24.10
2016,08,16,12,35,24.20
2016,08,16,12,36,24.30
2016,08,16,12,37,24.40
2016,08,16,12,38,24.50
2016,08,16,12,39,24.60
2016,08,16,12,40,24.70
2016,08,16,12,41,24.80
2016,08,16,12,42,24.80
2016,08,16,12,43,24.90
2016,08,16,12,44,24.90
2016,08,16,12,45,25.00
2016,08,16,12,46,25.00
2016,08,16,12,47,25.10
2016,08,16,12,48,25.10
2016,08,16,12,49,25.00
2016,08,16,12,50,24.90
2016,08,16,12,51,24.80
2016,08,16,12,52,24.80
2016,08,16,12,53,24.80
2016,08,16,12,54,24.80
2016,08,16,12,55,24.70
2016,08,16,12,56,24.70
2016,08,16,12,57,24.60
2016,08,16,12,58,24.60
2016,08,16,12,59,24.60
2016,08,16,13,00,24.60
2016,08,16,13,01,24.60
2016,08,16,13,02,24.60
2016,08,16,13,03,24.60
2016,08,16,13,04,24.60
2016,08,16,13,05,24.60
2016,08,16,13,06,24.60
2016,08,16,13,07,24.70
2016,08,16,13,08,24.70
2016,08,16,13,09,24.80
2016,08,16,13,10,24.80
2016,08,16,13,11,24.80
2016,08,16,13,12,24.80
2016,08,16,13,13,24.80
2016,08,16,13,14,24.80
2016,08,16,13,15,24.80
2016,08,16,13,16,24.90
2016,08,16,13,17,24.90
2016,08,16,13,18,25.00
2016,08,16,13,19,25.10
2016,08,16,13,20,25.10
2016,08,16,13,21,25.10
2016,08,16,13,22,25.00
2016,08,16,13,23,25.00
2016,08,16,13,24,24.90
2016,08,16,13,25,24.90
2016,08,16,13,26,24.90
2016,08,16,13,27,24.90
2016,08,16,13,28,24.90
2016,08,16,13,29,24.80
2016,08,16,13,30,24.80
2016,08,16,13,31,24.70
2016,08,16,13,32,24.70
2016,08,16,13,33,24.70
2016,08,16,13,34,24.70
2016,08,16,13,35,24.70
2016,08,16,13,36,24.70
2016,08,16,13,37,24.70
2016,08,16,13,38,24.70
2016,08,16,13,39,24.80
2016,08,16,13,40,24.80
2016,08,16,13,41,24.80
2016,08,16,13,42,24.80
2016,08,16,13,43,24.80
2016,08,16,13,44,24.80
2016,08,16,13,45,24.90
2016,08,16,13,46,25.00
2016,08,16,13,47,25.10
2016,08,16,13,48,25.20
2016,08,16,13,49,25.30
2016,08,16,13,50,25.30
2016,08,16,13,51,25.30
2016,08,16,13,52,25.20
2016,08,16,13,53,25.10
2016,08,16,13,54,25.00
2016,08,16,13,55,25.00
2016,08,16,13,56,25.00
2016,08,16,13,57,25.00
2016,08,16,13,58,25.10
2016,08,16,13,59,25.10
2016,08,16,14,00,25.20
2016,08,16,14,01,25.20
2016,08,16,14,02,25.30
2016,08,16,14,03,25.30
2016,08,16,14,04,25.30
2016,08,16,14,05,25.40
2016,08,16,14,06,25.40
2016,08,16,14,07,25.50
2016,08,16,14,08,25.50
2016,08,16,14,09,25.60
2016,08,16,14,10,25.60
2016,08,16,14,11,25.60
2016,08,16,14,12,25.50
2016,08,16,14,13,25.40
2016,08,16,14,14,25.30
2016,08,16,14,15,25.30
2016,08,16,14,16,25.40
2016,08,16,14,17,25.40
2016,08,16,14,18,25.40
2016,08,16,14,19,25.30
2016,08,16,14,20,25.20
2016,08,16,14,21,25.20
2016,08,16,14,22,25.10
2016,08,16,14,23,25.00
2016,08,16,14,24,24.90
2016,08,16,14,25,24.90
2016,08,16,14,26,25.00
2016,08,16,14,27,25.00
2016,08,16,14,28,25.10
2016,08,16,14,29,25.20
2016,08,16,14,30,25.30
2016,08,16,14,31,25.30
2016,08,16,14,32,25.50
2016,08,16,14,33,25.60
2016,08,16,14,34,25.60
2016,08,16,14,35,25.70
2016,08,16,14,36,25.80
2016,08,16,14,37,25.90
2016,08,16,14,38,26.00
2016,08,16,14,39,26.10
2016,08,16,14,40,26.10
2016,08,16,14,41,26.10
2016,08,16,14,42,26.00
2016,08,16,14,43,25.90
2016,08,16,14,44,25.90
2016,08,16,14,45,25.90
2016,08,16,14,46,25.90
2016,08,16,14,47,25.80
2016,08,16,14,48,25.80
2016,08,16,14,49,25.80
2016,08,16,14,50,25.90
2016,08,16,14,51,26.00
2016,08,16,14,52,26.00
2016,08,16,14,53,26.00
2016,08,16,14,54,26.10
2016,08,16,14,55,26.10
2016,08,16,14,56,26.10
2016,08,16,14,57,26.10
2016,08,16,14,58,26.10
2016,08,16,14,59,26.10
2016,08,16,15,00,26.10
2016,08,16,15,01,26.10
2016,08,16,15,02,26.10
2016,08,16,15,03,26.10
2016,08,16,15,04,26.10
2016,08,16,15,05,26.10
2016,08,16,15,06,26.10
2016,08,16,15,07,26.00
2016,08,16,15,08,25.80
2016,08,16,15,09,25.70
2016,08,16,15,10,25.70
2016,08,16,15,11,25.70
2016,08,16,15,12,25.70
2016,08,16,15,13,25.70
2016,08,16,15,14,25.70
2016,08,16,15,15,25.70
2016,08,16,15,16,25.80
2016,08,16,15,17,25.80
2016,08,16,15,18,25.90
2016,08,16,15,19,26.00
2016,08,16,15,20,26.10
2016,08,16,15,21,26.10
2016,08,16,15,22,26.10
2016,08,16,15,23,25.90
2016,08,16,15,24,25.80
2016,08,16,15,25,25.60
2016,08,16,15,26,25.60
2016,08,16,15,27,25.60
2016,08,16,15,28,25.50
2016,08,16,15,29,25.40
2016,08,16,15,30,25.30
2016,08,16,15,31,25.20
2016,08,16,15,32,25.10
2016,08,16,15,33,25.10
2016,08,16,15,34,25.20
2016,08,16,15,35,25.10
2016,08,16,15,36,25.10
2016,08,16,15,37,25.10
2016,08,16,15,38,25.10
2016,08,16,15,39,25.10
2016,08,16,15,40,25.10
2016,08,16,15,41,25.20
2016,08,16,15,42,25.30
2016,08,16,15,43,25.30
2016,08,16,15,44,25.30
2016,08,16,15,45,25.30
2016,08,16,15,46,25.40
2016,08,16,15,47,25.40
2016,08,16,15,48,25.50
2016,08,16,15,49,25.60
2016,08,16,15,50,25.80
2016,08,16,15,51,25.90
2016,08,16,15,52,26.00
2016,08,16,15,53,26.20
2016,08,16,15,54,26.30
2016,08,16,15,55,26.30
2016,08,16,15,56,26.40
2016,08,16,15,57,26.40
2016,08,16,15,58,26.40
2016,08,16,15,59,26.40
2016,08,16,16,00,26.30
2016,08,16,16,01,26.20
2016,08,16,16,02,26.10
2016,08,16,16,03,26.10
2016,08,16,16,04,26.00
2016,08,16,16,05,25.90
2016,08,16,16,06,25.90
2016,08,16,16,07,25.90
2016,08,16,16,08,26.00
2016,08,16,16,09,26.00
2016,08,16,16,10,26.20
2016,08,16,16,11,26.30
2016,08,16,16,12,26.30
2016,08,16,16,13,26.40
2016,08,16,16,14,26.40
2016,08,16,16,15,26.40
2016,08,16,16,16,26.40
2016,08,16,16,17,26.40
2016,08,16,16,18,26.40
2016,08,16,16,19,26.40
2016,08,16,16,20,26.50
2016,08,16,16,21,26.50
2016,08,16,16,22,26.60
2016,08,16,16,23,26.60
2016,08,16,16,24,26.60
2016,08,16,16,25,26.60
2016,08,16,16,26,26.50
2016,08,16,16,27,26.40
2016,08,16,16,28,26.30
2016,08,16,16,29,26.30
2016,08,16,16,30,26.20
2016,08,16,16,31,26.20
2016,08,16,16,32,26.00
2016,08,16,16,33,25.80
2016,08,16,16,34,25.70
2016,08,16,16,35,25.50
2016,08,16,16,36,25.50
2016,08,16,16,37,25.50
2016,08,16,16,38,25.50
2016,08,16,16,39,25.50
2016,08,16,16,40,25.50
2016,08,16,16,41,25.50
2016,08,16,16,42,25.50
2016,08,16,16,43,25.50
2016,08,16,16,44,25.50
2016,08,16,16,45,25.60
2016,08,16,16,46,25.60
2016,08,16,16,47,25.60
2016,08,16,16,48,25.70
2016,08,16,16,49,25.70
2016,08,16,16,50,25.80
2016,08,16,16,51,25.90
2016,08,16,16,52,25.90
2016,08,16,16,53,25.90
2016,08,16,16,54,25.90
2016,08,16,16,55,25.90
2016,08,16,16,56,25.80
2016,08,16,16,57,25.70
2016,08,16,16,58,25.70
2016,08,16,16,59,25.70
2016,08,16,17,00,25.70
2016,08,16,17,01,25.70
2016,08,16,17,02,25.70
2016,08,16,17,03,25.80
2016,08,16,17,04,25.80
2016,08,16,17,05,25.90
2016,08,16,17,06,25.90
2016,08,16,17,07,25.90
2016,08,16,17,08,25.90
2016,08,16,17,09,25.90
2016,08,16,17,10,25.80
2016,08,16,17,11,25.80
2016,08,16,17,12,25.80
2016,08,16,17,13,25.90
2016,08,16,17,14,25.90
2016,08,16,17,15,25.90
2016,08,16,17,16,25.90
2016,08,16,17,17,25.90
2016,08,16,17,18,25.90
2016,08,16,17,19,25.80